Time,TemperatureF,DewpointF,PressureIn,WindDirection,WindDirectionDegrees,WindSpeedMPH,WindSpeedGustMPH,Humidity,HourlyPrecipIn,Conditions,Clouds,dailyrainin,SoftwareType,DateUTC
2013-04-12 00:01:00,59.1,51.6,29.59,SSW,203,0.0,-999.0,76,0.00,,,0.00,,2013-04-12 04:01:00,
2013-04-12 00:06:00,58.8,51.6,29.58,NNE,23,0.0,-999.0,77,0.00,,,0.00,,2013-04-12 04:06:00,
2013-04-12 00:16:00,58.8,51.6,29.58,NNE,23,0.0,-999.0,77,0.00,,,0.00,,2013-04-12 04:16:00,
2013-04-12 00:21:00,58.8,51.6,29.58,NNE,23,0.0,-999.0,77,0.00,,,0.00,,2013-04-12 04:21:00,
2013-04-12 00:26:00,58.8,52.0,29.57,NNE,23,0.0,-999.0,78,0.00,,,0.00,,2013-04-12 04:26:00,
2013-04-12 00:37:00,58.8,52.0,29.57,NNE,23,0.0,-999.0,78,0.00,,,0.00,,2013-04-12 04:37:00,
2013-04-12 00:46:00,58.8,52.3,29.57,NNE,23,0.0,-999.0,79,0.00,,,0.00,,2013-04-12 04:46:00,
2013-04-12 00:51:00,58.8,52.3,29.57,NNE,23,0.0,-999.0,79,0.00,,,0.00,,2013-04-12 04:51:00,
2013-04-12 00:56:00,58.8,52.3,29.57,NNE,23,0.0,-999.0,79,0.00,,,0.00,,2013-04-12 04:56:00,
2013-04-12 01:06:00,58.8,52.3,29.56,NNE,23,0.0,-999.0,79,0.00,,,0.00,,2013-04-12 05:06:00,
2013-04-12 01:16:00,58.8,52.7,29.55,NNE,23,0.0,-999.0,80,0.00,,,0.00,,2013-04-12 05:16:00,
2013-04-12 01:26:00,58.8,52.7,29.55,NNE,23,0.0,-999.0,80,0.00,,,0.00,,2013-04-12 05:26:00,
2013-04-12 01:36:00,58.8,52.7,29.55,NNE,23,0.0,-999.0,80,0.00,,,0.00,,2013-04-12 05:36:00,
2013-04-12 01:41:00,58.8,52.7,29.54,NNE,23,0.0,-999.0,80,0.00,,,0.00,,2013-04-12 05:41:00,
2013-04-12 01:46:00,58.8,52.7,29.54,NNE,23,0.0,-999.0,80,0.00,,,0.00,,2013-04-12 05:46:00,
2013-04-12 01:51:00,58.8,52.7,29.54,NNE,23,0.0,-999.0,80,0.00,,,0.00,,2013-04-12 05:51:00,
2013-04-12 01:56:00,58.8,52.7,29.54,NNE,23,0.0,-999.0,80,0.00,,,0.00,,2013-04-12 05:56:00,
2013-04-12 02:01:00,58.8,52.7,29.54,NNE,23,0.0,-999.0,80,0.00,,,0.00,,2013-04-12 06:01:00,
2013-04-12 02:11:00,59.3,53.1,29.54,East,90,0.0,-999.0,80,0.00,,,0.00,,2013-04-12 06:11:00,
2013-04-12 02:16:00,59.5,53.3,29.54,East,90,0.0,-999.0,80,0.00,,,0.00,,2013-04-12 06:16:00,
2013-04-12 02:21:00,59.5,53.3,29.53,East,90,0.0,-999.0,80,0.00,,,0.00,,2013-04-12 06:21:00,
2013-04-12 02:26:00,59.7,53.5,29.53,East,90,0.0,-999.0,80,0.00,,,0.00,,2013-04-12 06:26:00,
2013-04-12 02:31:00,59.9,53.7,29.53,East,90,0.0,-999.0,80,0.00,,,0.00,,2013-04-12 06:31:00,
2013-04-12 02:36:00,60.0,53.8,29.53,East,90,0.0,-999.0,80,0.00,,,0.00,,2013-04-12 06:36:00,
2013-04-12 02:46:00,60.4,54.2,29.53,East,90,0.0,-999.0,80,0.00,,,0.00,,2013-04-12 06:46:00,
2013-04-12 02:56:00,60.0,53.8,29.55,West,270,6.0,-999.0,80,0.00,,,0.00,,2013-04-12 06:56:00,
2013-04-12 03:06:00,60.6,54.4,29.55,South,180,0.0,-999.0,80,0.00,,,0.00,,2013-04-12 07:06:00,
2013-04-12 03:21:00,60.0,54.2,29.55,South,180,0.0,-999.0,81,0.00,,,0.00,,2013-04-12 07:21:00,
2013-04-12 03:26:00,59.7,54.2,29.55,South,180,0.0,-999.0,82,0.00,,,0.00,,2013-04-12 07:26:00,
2013-04-12 03:31:00,59.5,54.0,29.55,South,180,0.0,-999.0,82,0.00,,,0.00,,2013-04-12 07:31:00,
2013-04-12 03:36:00,58.9,54.1,29.54,South,180,0.0,-999.0,84,0.00,,,0.00,,2013-04-12 07:36:00,
2013-04-12 03:46:00,58.8,54.3,29.54,South,180,0.0,-999.0,85,0.00,,,0.00,,2013-04-12 07:46:00,
2013-04-12 03:56:00,58.6,54.4,29.54,South,180,0.0,-999.0,86,0.00,,,0.00,,2013-04-12 07:56:00,
2013-04-12 04:01:00,58.4,54.2,29.53,South,180,0.0,-999.0,86,0.00,,,0.00,,2013-04-12 08:01:00,
2013-04-12 04:06:00,58.2,54.4,29.54,SSE,158,0.0,-999.0,87,0.00,,,0.00,,2013-04-12 08:06:00,
2013-04-12 04:16:00,58.2,54.7,29.53,SSE,158,0.0,-999.0,88,0.00,,,0.00,,2013-04-12 08:16:00,
2013-04-12 04:26:00,58.4,55.2,29.52,SSE,158,0.0,-999.0,89,0.00,,,0.00,,2013-04-12 08:26:00,
2013-04-12 04:36:00,58.6,55.4,29.52,SSE,158,0.0,-999.0,89,0.00,,,0.00,,2013-04-12 08:36:00,
2013-04-12 04:51:00,58.8,55.6,29.53,SSE,158,0.0,-999.0,89,0.00,,,0.00,,2013-04-12 08:51:00,
2013-04-12 04:56:00,58.8,55.9,29.53,SSE,158,0.0,-999.0,90,0.00,,,0.00,,2013-04-12 08:56:00,
2013-04-12 05:01:00,58.8,55.9,29.53,SSE,158,0.0,-999.0,90,0.00,,,0.00,,2013-04-12 09:01:00,
2013-04-12 05:11:00,58.8,55.9,29.54,SSE,158,0.0,-999.0,90,0.00,,,0.00,,2013-04-12 09:11:00,
2013-04-12 05:16:00,58.8,55.9,29.54,SSE,158,0.0,-999.0,90,0.00,,,0.00,,2013-04-12 09:16:00,
2013-04-12 05:27:00,59.1,56.5,29.54,SSE,158,0.0,-999.0,91,0.00,,,0.00,,2013-04-12 09:27:00,
2013-04-12 05:36:00,59.5,56.9,29.54,SSE,158,0.0,-999.0,91,0.00,,,0.00,,2013-04-12 09:36:00,
2013-04-12 05:46:00,59.5,56.9,29.54,SSE,158,0.0,-999.0,91,0.00,,,0.00,,2013-04-12 09:46:00,
2013-04-12 05:56:00,59.7,57.1,29.53,SSE,158,0.0,-999.0,91,0.00,,,0.00,,2013-04-12 09:56:00,
2013-04-12 06:01:00,59.7,57.1,29.53,SSE,158,0.0,-999.0,91,0.00,,,0.00,,2013-04-12 10:01:00,
2013-04-12 06:06:00,59.7,57.1,29.53,SSE,158,0.0,-999.0,91,0.00,,,0.00,,2013-04-12 10:06:00,
2013-04-12 06:16:00,59.9,57.3,29.52,SSW,203,0.0,-999.0,91,0.00,,,0.00,,2013-04-12 10:16:00,
2013-04-12 06:26:00,59.9,57.3,29.52,SSW,203,0.0,-999.0,91,0.00,,,0.00,,2013-04-12 10:26:00,
2013-04-12 06:36:00,59.7,57.1,29.50,South,180,0.0,-999.0,91,0.00,,,0.00,,2013-04-12 10:36:00,
2013-04-12 06:46:00,59.7,57.1,29.50,SSW,203,0.0,-999.0,91,0.00,,,0.00,,2013-04-12 10:46:00,
2013-04-12 06:56:00,59.7,57.4,29.50,SSW,203,1.0,-999.0,92,0.00,,,0.00,,2013-04-12 10:56:00,
2013-04-12 07:01:00,59.7,57.4,29.50,SSW,203,1.0,-999.0,92,0.00,,,0.00,,2013-04-12 11:01:00,
2013-04-12 07:06:00,59.7,57.4,29.50,SW,225,1.0,-999.0,92,0.00,,,0.00,,2013-04-12 11:06:00,
2013-04-12 07:11:00,59.7,57.4,29.51,SW,225,0.0,-999.0,92,0.00,,,0.00,,2013-04-12 11:11:00,
2013-04-12 07:16:00,59.7,57.4,29.51,SSW,203,0.0,-999.0,92,0.00,,,0.00,,2013-04-12 11:16:00,
2013-04-12 07:21:00,59.7,57.4,29.51,North,0,0.0,-999.0,92,0.00,,,0.00,,2013-04-12 11:21:00,
2013-04-12 07:26:00,59.7,57.4,29.51,SSW,203,0.0,-999.0,92,0.00,,,0.00,,2013-04-12 11:26:00,
2013-04-12 07:36:00,59.5,57.2,29.51,SSE,158,0.0,-999.0,92,0.00,,,0.00,,2013-04-12 11:36:00,
2013-04-12 07:46:00,59.5,57.2,29.51,SSW,203,0.0,-999.0,92,0.00,,,0.00,,2013-04-12 11:46:00,
2013-04-12 07:51:00,59.7,57.4,29.50,SW,225,0.0,-999.0,92,0.00,,,0.00,,2013-04-12 11:51:00,
2013-04-12 07:56:00,59.5,57.2,29.50,SW,225,0.0,-999.0,92,0.00,,,0.00,,2013-04-12 11:56:00,
2013-04-12 08:01:00,59.5,57.2,29.50,SW,225,0.0,-999.0,92,0.00,,,0.00,,2013-04-12 12:01:00,
2013-04-12 08:06:00,59.5,57.2,29.51,SW,225,0.0,-999.0,92,0.00,,,0.00,,2013-04-12 12:06:00,
2013-04-12 08:11:00,59.5,57.2,29.51,SSW,203,0.0,-999.0,92,0.00,,,0.00,,2013-04-12 12:11:00,
2013-04-12 08:16:00,59.5,57.2,29.51,SSW,203,0.0,-999.0,92,0.00,,,0.00,,2013-04-12 12:16:00,
2013-04-12 08:26:00,59.7,57.4,29.51,SSW,203,0.0,-999.0,92,0.00,,,0.00,,2013-04-12 12:26:00,
2013-04-12 08:37:00,60.4,58.1,29.51,South,180,0.0,-999.0,92,0.00,,,0.00,,2013-04-12 12:37:00,
2013-04-12 08:46:00,60.9,58.6,29.51,SSE,158,0.0,-999.0,92,0.00,,,0.00,,2013-04-12 12:46:00,
2013-04-12 09:01:00,61.1,58.5,29.52,SSE,158,0.0,-999.0,91,0.00,,,0.00,,2013-04-12 13:01:00,
2013-04-12 09:06:00,61.3,58.7,29.52,SSE,158,1.0,-999.0,91,0.00,,,0.00,,2013-04-12 13:06:00,
2013-04-12 09:16:00,61.5,58.9,29.53,SSE,158,1.0,-999.0,91,0.00,,,0.00,,2013-04-12 13:16:00,
2013-04-12 09:26:00,61.5,58.9,29.53,ENE,68,4.0,-999.0,91,0.00,,,0.00,,2013-04-12 13:26:00,
2013-04-12 09:36:00,61.7,58.7,29.53,SW,225,3.0,-999.0,90,0.00,,,0.00,,2013-04-12 13:36:00,
2013-04-12 09:46:00,62.4,58.8,29.53,West,270,9.0,-999.0,88,0.00,,,0.00,,2013-04-12 13:46:00,
2013-04-12 09:51:00,62.6,59.0,29.53,SW,225,7.0,-999.0,88,0.00,,,0.00,,2013-04-12 13:51:00,
2013-04-12 09:56:00,63.1,59.5,29.53,SSW,203,6.0,-999.0,88,0.00,,,0.00,,2013-04-12 13:56:00,
2013-04-12 10:06:00,63.6,59.3,29.54,West,270,6.0,-999.0,86,0.00,,,0.00,,2013-04-12 14:06:00,
2013-04-12 10:16:00,62.7,58.1,29.54,WSW,248,9.0,-999.0,85,0.00,,,0.00,,2013-04-12 14:16:00,
2013-04-12 10:21:00,62.2,57.6,29.56,West,270,9.0,-999.0,85,0.00,,,0.00,,2013-04-12 14:21:00,
2013-04-12 10:26:00,61.5,57.3,29.56,WSW,248,11.0,-999.0,86,0.00,,,0.00,,2013-04-12 14:26:00,
2013-04-12 10:36:00,61.5,57.6,29.56,SW,225,6.0,-999.0,87,0.00,,,0.00,,2013-04-12 14:36:00,
2013-04-12 10:41:00,61.5,57.0,29.57,West,270,10.0,-999.0,85,0.00,,,0.00,,2013-04-12 14:41:00,
2013-04-12 10:46:00,61.1,56.2,29.58,West,270,3.0,-999.0,84,0.00,,,0.00,,2013-04-12 14:46:00,
2013-04-12 10:56:00,60.6,55.7,29.58,WNW,293,7.0,-999.0,84,0.00,,,0.00,,2013-04-12 14:56:00,
2013-04-12 11:01:00,60.9,56.0,29.58,WNW,293,12.0,-999.0,84,0.00,,,0.00,,2013-04-12 15:01:00,
2013-04-12 11:06:00,60.9,55.4,29.58,SSE,158,4.0,-999.0,82,0.00,,,0.00,,2013-04-12 15:06:00,
2013-04-12 11:21:00,61.7,54.4,29.59,West,270,10.0,-999.0,77,0.00,,,0.00,,2013-04-12 15:21:00,
2013-04-12 11:26:00,61.7,54.1,29.59,SW,225,4.0,-999.0,76,0.00,,,0.00,,2013-04-12 15:26:00,
2013-04-12 11:36:00,61.5,53.9,29.60,SW,225,5.0,-999.0,76,0.00,,,0.00,,2013-04-12 15:36:00,
2013-04-12 11:46:00,60.6,52.6,29.61,West,270,5.0,-999.0,75,0.00,,,0.00,,2013-04-12 15:46:00,
2013-04-12 11:51:00,59.5,52.3,29.62,West,270,5.0,-999.0,77,0.00,,,0.00,,2013-04-12 15:51:00,
2013-04-12 11:56:00,58.8,52.0,29.62,West,270,14.0,-999.0,78,0.00,,,0.00,,2013-04-12 15:56:00,
2013-04-12 12:06:00,58.2,51.7,29.62,WSW,248,8.0,-999.0,79,0.00,,,0.00,,2013-04-12 16:06:00,
2013-04-12 12:16:00,57.7,50.9,29.63,WSW,248,7.0,-999.0,78,0.00,,,0.00,,2013-04-12 16:16:00,
2013-04-12 12:21:00,57.5,50.7,29.63,SSW,203,4.0,-999.0,78,0.00,,,0.00,,2013-04-12 16:21:00,
2013-04-12 12:26:00,57.5,51.0,29.63,SSW,203,6.0,-999.0,79,0.00,,,0.00,,2013-04-12 16:26:00,
2013-04-12 12:36:00,57.3,50.2,29.63,WSW,248,2.0,-999.0,77,0.00,,,0.00,,2013-04-12 16:36:00,
2013-04-12 12:41:00,57.7,49.5,29.64,WSW,248,10.0,-999.0,74,0.00,,,0.00,,2013-04-12 16:41:00,
2013-04-12 12:46:00,57.9,49.7,29.63,WSW,248,4.0,-999.0,74,0.00,,,0.00,,2013-04-12 16:46:00,
2013-04-12 12:56:00,59.1,50.5,29.63,SSW,203,4.0,-999.0,73,0.00,,,0.00,,2013-04-12 16:56:00,
2013-04-12 13:07:00,59.9,50.9,29.63,SW,225,8.0,-999.0,72,0.00,,,0.00,,2013-04-12 17:07:00,
2013-04-12 13:16:00,61.1,51.6,29.63,South,180,0.0,-999.0,71,0.00,,,0.00,,2013-04-12 17:16:00,
2013-04-12 13:26:00,60.9,50.3,29.63,West,270,6.0,-999.0,68,0.00,,,0.00,,2013-04-12 17:26:00,
2013-04-12 13:31:00,60.6,50.4,29.63,West,270,3.0,-999.0,69,0.00,,,0.00,,2013-04-12 17:31:00,
2013-04-12 13:41:00,60.4,49.4,29.63,WNW,293,10.0,-999.0,67,0.00,,,0.00,,2013-04-12 17:41:00,
2013-04-12 13:46:00,60.6,50.4,29.63,West,270,11.0,-999.0,69,0.00,,,0.00,,2013-04-12 17:46:00,
2013-04-12 13:56:00,60.9,49.5,29.63,West,270,11.0,-999.0,66,0.00,,,0.00,,2013-04-12 17:56:00,
2013-04-12 14:01:00,60.8,49.4,29.63,West,270,10.0,-999.0,66,0.00,,,0.00,,2013-04-12 18:01:00,
2013-04-12 14:06:00,60.4,49.0,29.63,SSW,203,3.0,-999.0,66,0.00,,,0.00,,2013-04-12 18:06:00,
2013-04-12 14:11:00,61.1,50.5,29.63,SW,225,0.0,-999.0,68,0.00,,,0.00,,2013-04-12 18:11:00,
2013-04-12 15:26:00,61.5,48.4,29.63,WSW,248,12.0,-999.0,62,0.00,,,0.00,,2013-04-12 19:26:00,
2013-04-12 15:31:00,61.3,47.8,29.63,WSW,248,4.0,-999.0,61,0.00,,,0.00,,2013-04-12 19:31:00,
2013-04-12 15:36:00,61.5,48.4,29.63,SSW,203,0.0,-999.0,62,0.00,,,0.00,,2013-04-12 19:36:00,
2013-04-12 15:41:00,61.8,48.7,29.63,WSW,248,4.0,-999.0,62,0.00,,,0.00,,2013-04-12 19:41:00,
2013-04-12 15:46:00,62.4,48.8,29.63,WSW,248,3.0,-999.0,61,0.00,,,0.00,,2013-04-12 19:46:00,
2013-04-12 15:51:00,62.4,47.9,29.63,WNW,293,3.0,-999.0,59,0.00,,,0.00,,2013-04-12 19:51:00,
2013-04-12 15:56:00,61.5,47.9,29.64,SSW,203,4.0,-999.0,61,0.00,,,0.00,,2013-04-12 19:56:00,
2013-04-12 16:01:00,60.6,47.1,29.64,WSW,248,0.0,-999.0,61,0.00,,,0.00,,2013-04-12 20:01:00,
2013-04-12 16:06:00,60.6,47.5,29.64,West,270,10.0,-999.0,62,0.00,,,0.00,,2013-04-12 20:06:00,
2013-04-12 16:16:00,60.4,47.3,29.65,WSW,248,0.0,-999.0,62,0.00,,,0.00,,2013-04-12 20:16:00,
2013-04-12 16:21:00,60.6,47.5,29.65,WSW,248,6.0,-999.0,62,0.00,,,0.00,,2013-04-12 20:21:00,
2013-04-12 16:26:00,61.3,48.2,29.65,WSW,248,15.0,-999.0,62,0.00,,,0.00,,2013-04-12 20:26:00,
2013-04-12 16:36:00,61.5,47.1,29.64,SW,225,3.0,-999.0,59,0.00,,,0.00,,2013-04-12 20:36:00,
2013-04-12 16:46:00,60.6,46.2,29.66,WSW,248,6.0,-999.0,59,0.00,,,0.00,,2013-04-12 20:46:00,
2013-04-12 16:56:00,59.7,44.5,29.66,West,270,7.0,-999.0,57,0.00,,,0.00,,2013-04-12 20:56:00,
2013-04-12 17:01:00,58.8,44.1,29.66,WSW,248,8.0,-999.0,58,0.00,,,0.00,,2013-04-12 21:01:00,
2013-04-12 17:06:00,58.8,44.1,29.66,WSW,248,12.0,-999.0,58,0.00,,,0.00,,2013-04-12 21:06:00,
2013-04-12 17:16:00,58.8,45.0,29.68,WSW,248,0.0,-999.0,60,0.00,,,0.00,,2013-04-12 21:16:00,
2013-04-12 17:26:00,58.6,44.8,29.68,WSW,248,0.0,-999.0,60,0.00,,,0.00,,2013-04-12 21:26:00,
2013-04-12 17:31:00,58.6,44.3,29.69,WSW,248,5.0,-999.0,59,0.00,,,0.00,,2013-04-12 21:31:00,
2013-04-12 17:36:00,57.9,44.1,29.69,WSW,248,14.0,-999.0,60,0.00,,,0.00,,2013-04-12 21:36:00,
2013-04-12 17:46:00,57.0,43.3,29.71,WSW,248,6.0,-999.0,60,0.00,,,0.00,,2013-04-12 21:46:00,
2013-04-12 17:51:00,55.7,42.5,29.71,West,270,9.0,-999.0,61,0.00,,,0.00,,2013-04-12 21:51:00,
2013-04-12 17:56:00,54.8,42.0,29.71,WSW,248,7.0,-999.0,62,0.00,,,0.00,,2013-04-12 21:56:00,
2013-04-12 18:01:00,54.5,42.2,29.72,WSW,248,13.0,-999.0,63,0.00,,,0.00,,2013-04-12 22:01:00,
2013-04-12 18:06:00,53.9,42.0,29.72,West,270,8.0,-999.0,64,0.00,,,0.00,,2013-04-12 22:06:00,
2013-04-12 18:11:00,53.7,41.8,29.73,WSW,248,9.0,-999.0,64,0.00,,,0.00,,2013-04-12 22:11:00,
2013-04-12 18:16:00,52.5,41.1,29.73,North,0,9.0,-999.0,65,0.00,,,0.00,,2013-04-12 22:16:00,
2013-04-12 18:26:00,51.4,40.4,29.74,SW,225,15.0,-999.0,66,0.00,,,0.00,,2013-04-12 22:26:00,
2013-04-12 18:31:00,50.5,39.6,29.75,NW,315,7.0,-999.0,66,0.00,,,0.00,,2013-04-12 22:31:00,
2013-04-12 18:36:00,50.1,39.2,29.76,WSW,248,7.0,-999.0,66,0.00,,,0.00,,2013-04-12 22:36:00,
2013-04-12 18:46:00,50.3,39.0,29.76,SW,225,5.0,-999.0,65,0.00,,,0.00,,2013-04-12 22:46:00,
2013-04-12 18:51:00,50.1,38.8,29.76,WSW,248,0.0,-999.0,65,0.00,,,0.00,,2013-04-12 22:51:00,
2013-04-12 18:56:00,50.1,38.4,29.77,West,270,12.0,-999.0,64,0.00,,,0.00,,2013-04-12 22:56:00,
2013-04-12 19:06:00,49.2,37.2,29.77,West,270,13.0,-999.0,63,0.00,,,0.00,,2013-04-12 23:06:00,
2013-04-12 19:16:00,48.7,35.9,29.78,WNW,293,14.0,-999.0,61,0.00,,,0.00,,2013-04-12 23:16:00,
2013-04-12 19:31:00,48.2,35.4,29.78,NNW,338,5.0,-999.0,61,0.00,,,0.00,,2013-04-12 23:31:00,
2013-04-12 19:36:00,48.0,35.6,29.79,WNW,293,0.0,-999.0,62,0.00,,,0.00,,2013-04-12 23:36:00,
2013-04-12 19:46:00,47.8,35.4,29.79,West,270,7.0,-999.0,62,0.00,,,0.00,,2013-04-12 23:46:00,
2013-04-12 19:56:00,47.4,35.0,29.80,NNW,338,5.0,-999.0,62,0.00,,,0.00,,2013-04-12 23:56:00,
2013-04-12 20:06:00,47.1,34.8,29.80,NNE,23,6.0,-999.0,62,0.00,,,0.00,,2013-04-13 00:06:00,
2013-04-12 20:16:00,47.1,34.8,29.80,West,270,2.0,-999.0,62,0.00,,,0.00,,2013-04-13 00:16:00,
2013-04-12 20:21:00,46.9,34.6,29.80,West,270,2.0,-999.0,62,0.00,,,0.00,,2013-04-13 00:21:00,
2013-04-12 20:26:00,47.1,34.8,29.81,SW,225,5.0,-999.0,62,0.00,,,0.00,,2013-04-13 00:26:00,
2013-04-12 20:31:00,46.9,34.6,29.81,WSW,248,0.0,-999.0,62,0.00,,,0.00,,2013-04-13 00:31:00,
2013-04-12 20:36:00,46.9,34.6,29.81,NW,315,6.0,-999.0,62,0.00,,,0.00,,2013-04-13 00:36:00,
2013-04-12 20:46:00,46.7,34.8,29.81,West,270,0.0,-999.0,63,0.00,,,0.00,,2013-04-13 00:46:00,
2013-04-12 20:51:00,46.7,34.8,29.81,West,270,0.0,-999.0,63,0.00,,,0.00,,2013-04-13 00:51:00,
2013-04-12 21:01:00,46.7,34.8,29.82,WNW,293,0.0,-999.0,63,0.00,,,0.00,,2013-04-13 01:01:00,
2013-04-12 21:06:00,46.7,34.8,29.82,WNW,293,0.0,-999.0,63,0.00,,,0.00,,2013-04-13 01:06:00,
2013-04-12 21:16:00,46.5,35.0,29.82,West,270,6.0,-999.0,64,0.00,,,0.00,,2013-04-13 01:16:00,
2013-04-12 21:26:00,46.5,35.0,29.83,NW,315,4.0,-999.0,64,0.00,,,0.00,,2013-04-13 01:26:00,
2013-04-12 21:36:00,46.4,34.9,29.83,West,270,0.0,-999.0,64,0.00,,,0.00,,2013-04-13 01:36:00,
2013-04-12 21:41:00,46.4,34.9,29.83,West,270,2.0,-999.0,64,0.00,,,0.00,,2013-04-13 01:41:00,
2013-04-12 21:46:00,46.2,34.7,29.84,WNW,293,0.0,-999.0,64,0.00,,,0.00,,2013-04-13 01:46:00,
2013-04-12 21:51:00,46.2,35.1,29.84,West,270,0.0,-999.0,65,0.00,,,0.00,,2013-04-13 01:51:00,
2013-04-12 21:56:00,46.2,34.7,29.84,NW,315,6.0,-999.0,64,0.00,,,0.00,,2013-04-13 01:56:00,
2013-04-12 22:06:00,46.0,34.9,29.84,West,270,7.0,-999.0,65,0.00,,,0.00,,2013-04-13 02:06:00,
2013-04-12 22:16:00,46.2,35.1,29.84,West,270,3.0,-999.0,65,0.00,,,0.00,,2013-04-13 02:16:00,
2013-04-12 22:26:00,46.2,35.1,29.84,WSW,248,0.0,-999.0,65,0.00,,,0.00,,2013-04-13 02:26:00,
2013-04-12 22:31:00,46.2,35.1,29.84,WSW,248,0.0,-999.0,65,0.00,,,0.00,,2013-04-13 02:31:00,
2013-04-12 22:36:00,46.2,35.5,29.84,West,270,3.0,-999.0,66,0.00,,,0.00,,2013-04-13 02:36:00,
2013-04-12 22:46:00,46.0,35.3,29.85,West,270,6.0,-999.0,66,0.00,,,0.00,,2013-04-13 02:46:00,
2013-04-12 22:51:00,46.0,35.3,29.84,WSW,248,0.0,-999.0,66,0.00,,,0.00,,2013-04-13 02:51:00,
2013-04-12 22:56:00,46.0,35.3,29.84,West,270,4.0,-999.0,66,0.00,,,0.00,,2013-04-13 02:56:00,
2013-04-12 23:06:00,45.8,35.5,29.84,SW,225,0.0,-999.0,67,0.00,,,0.00,,2013-04-13 03:06:00,
2013-04-12 23:11:00,45.8,35.5,29.84,WSW,248,0.0,-999.0,67,0.00,,,0.00,,2013-04-13 03:11:00,
2013-04-12 23:21:00,45.6,35.3,29.84,West,270,3.0,-999.0,67,0.00,,,0.00,,2013-04-13 03:21:00,
2013-04-12 23:26:00,45.6,35.3,29.84,WSW,248,0.0,-999.0,67,0.00,,,0.00,,2013-04-13 03:26:00,
2013-04-12 23:31:00,45.8,35.9,29.84,WSW,248,0.0,-999.0,68,0.00,,,0.00,,2013-04-13 03:31:00,
2013-04-12 23:36:00,45.6,35.3,29.84,SW,225,0.0,-999.0,67,0.00,,,0.00,,2013-04-13 03:36:00,
2013-04-12 23:41:00,45.6,35.7,29.84,SSW,203,3.0,-999.0,68,0.00,,,0.00,,2013-04-13 03:41:00,
2013-04-12 23:46:00,45.6,35.7,29.84,West,270,2.0,-999.0,68,0.00,,,0.00,,2013-04-13 03:46:00,
2013-04-12 23:56:00,45.6,35.7,29.84,WSW,248,0.0,-999.0,68,0.00,,,0.00,,2013-04-13 03:56:00,